Location: Pic du Midi - T1M
(42.9366°N, 0.1426°E)
Time: 05:45:20
(UTC+01:00)

Nauka - Pass Details

Date: 01 October 2021
Orbit: 417 x 423 km, 51.6° (Epoch: 19 October)

Event Time Altitude Azimuth Distance (km) Brightness Sun altitude
Rises 20:51:24 0° 302° (WNW) 2,358 ? -24.5°
Reaches altitude 10° 20:53:30 10° 301° (WNW) 1,493 ? -24.8°
Enters shadow 20:55:29 33° 297° (WNW) 728 ? -25.2°
